Weather in Chernod'ye

Russia / Oryol Oblast     52°28′43″N   35°43′25″E
temp.,
°C
wind,
m/s
gust,
m/s
humid.,
%
clouds,
%
prec.,
mm/h
press.,
hPa
HPBL,
m
28 september, tue
tue2800:00+7n41096100 0.0 1023324
03:00+7n4895100 0.0 1023348
06:00+7n499493 0.1 1024440
09:00+8nne4892100 0.2 1025522
12:00+8ene578198 0.3 1027839
15:00+8ne467697 0.3 1028917
18:00+7ne578397 0.0 1029599
21:00+7ne5985100 0.0 1031702
29 september, wed
wed2900:00+6ene4879100 0.0 1033498
03:00+6ne3779100 0.0 1033338
06:00+3ne38885 0.0 1034190
09:00+5ne57735 0.0 1035401
12:00+9ne45565 0.0 10351027
15:00+11ne44495 0.0 10331184
18:00+8ne336414 0.0 103335
21:00+6ene337195 0.0 103433
30 september, thu
thu3000:00+5ene2272100 0.0 103517
03:00+5ne1174100 0.0 103510
06:00+4nne227941 0.0 103514
09:00+7ene23685 0.0 1036220
12:00+11ene23565 0.0 1035880
15:00+12ene22532 0.0 10341170
18:00+9ne22675 0.0 103410
21:00+7e22755 0.0 103510
1 october, fri
fri100:00+6se12785 0.0 103610
03:00+5se11825 0.0 103610
06:00+5se11844 0.0 103610
09:00+8se12715 0.0 1036168
12:00+12se22585 0.0 1036839
15:00+13s22525 0.0 10351099
18:00+10se11642 0.0 103410
21:00+8se22700 0.0 103510
2 october, sat
sat200:00+7sse22740 0.0 103511
03:00+6sse22775 0.0 103517
06:00+5sse22795 0.0 103521
09:00+9sse346753 0.0 1035186
12:00+13s3453100 0.0 1034802
15:00+14sse44505 0.0 10331113
18:00+11se33655 0.0 103228
21:00+9sse357161 0.0 103269